(°C)
32°
33°
33°
33°
33°
33°
33°
(°C)
34°
34°
34°
34°
34°
33°
33°
З
З
З
З
З
З
З
(км/ч)
8-19
8-20
9-20
9-20
9-21
9-21
8-21
(мм)
0
0
0
0
0
0
0
(%)
0
0
0
0
0
0
0

Высота солнцестояния

/ 57.6°
sun-icon
UV 6
02:56
20:33
Растущая луна (148°)
17:42
01:14

METAR для 55.61°С 49.28°В (UWKD)

Время Условия Температура/
Точка росы
Ветер Видимость Погода Облачность Давление Изменить Необработанный
VFR 32°C / 13°C 320º variable 280º to 360º 8kt >10km - Clouds and Visibility OK 1021 No Significant change UWKD 220800Z 32004MPS 280V360 CAVOK 32/13 Q1021 R29/CLRD70 NOSIG RMK QFE755/1006
VFR 32°C / 12°C 310º variable 250º to 010º 8kt >10km - Clouds and Visibility OK 1021 No Significant change UWKD 220730Z 31004MPS 250V010 CAVOK 32/12 Q1021 R29/CLRD70 NOSIG RMK QFE755/1007
VFR 32°C / 12°C 330º variable 290º to 360º 8kt >10km - Clouds and Visibility OK 1021 No Significant change UWKD 220700Z 33004MPS 290V360 CAVOK 32/12 Q1021 R29/CLRD70 NOSIG RMK QFE755/1007
VFR 31°C / 13°C 310º variable 250º to 010º 6kt >10km - Clouds and Visibility OK 1021 No Significant change UWKD 220630Z 31003MPS 250V010 CAVOK 31/13 Q1021 R29/CLRD70 NOSIG RMK QFE755/1007
VFR 30°C / 15°C 280º variable 260º to 340º 6kt >10km - Clouds and Visibility OK 1022 No Significant change UWKD 220600Z 28003MPS 260V340 CAVOK 30/15 Q1022 R29/70D NOSIG RMK QFE755/1007
VFR 30°C / 15°C 290º variable 260º to 330º 6kt >10km - Clouds and Visibility OK 1022 No Significant change UWKD 220530Z 29003MPS 260V330 CAVOK 30/15 Q1022 R29/CLRD70 NOSIG RMK QFE755/1007
VFR 29°C / 16°C 300º variable 260º to 340º 6kt >10km - Clouds and Visibility OK 1022 No Significant change UWKD 220500Z 30003MPS 260V340 CAVOK 29/16 Q1022 R29/CLRD70 NOSIG RMK QFE755/1007
VFR 28°C / 16°C 300º variable 270º to 330º 6kt >10km - Clouds and Visibility OK 1022 No Significant change UWKD 220430Z 30003MPS 270V330 CAVOK 28/16 Q1022 R29/CLRD70 NOSIG RMK QFE755/1007
VFR 27°C / 17°C 310º 6kt >10km - Clouds and Visibility OK 1022 No Significant change UWKD 220400Z 31003MPS CAVOK 27/17 Q1022 R29/CLRD70 NOSIG RMK QFE755/1007
VFR 25°C / 16°C 320º 6kt >10km - Clouds and Visibility OK 1021 No Significant change UWKD 220330Z 32003MPS CAVOK 25/16 Q1021 R29/CLRD70 NOSIG RMK QFE755/1007
VFR 24°C / 16°C 310º 4kt >10km - Clouds and Visibility OK 1021 No Significant change UWKD 220300Z 31002MPS CAVOK 24/16 Q1021 R29/70D NOSIG RMK QFE755/1007
VFR 23°C / 17°C 320º 4kt >10km - Clouds and Visibility OK 1021 No Significant change UWKD 220230Z 32002MPS CAVOK 23/17 Q1021 R29/70D NOSIG RMK QFE755/1006
VFR 23°C / 16°C 330º 4kt >10km - Clouds and Visibility OK 1021 No Significant change UWKD 220200Z 33002MPS CAVOK 23/16 Q1021 R29/70D NOSIG RMK QFE755/1006
VFR 22°C / 16°C 330º 4kt >10km - Clouds and Visibility OK 1021 No Significant change UWKD 220130Z 33002MPS CAVOK 22/16 Q1021 R29/CLRD70 NOSIG RMK QFE755/1006
VFR 21°C / 15°C 320º 4kt >10km - Clouds and Visibility OK 1021 No Significant change UWKD 220100Z 32002MPS CAVOK 21/15 Q1021 R29/70D NOSIG RMK QFE754/1006
VFR 21°C / 15°C 320º 4kt >10km - Clouds and Visibility OK 1021 No Significant change UWKD 220030Z 32002MPS CAVOK 21/15 Q1021 R29/CLRD70 NOSIG RMK QFE754/1006
VFR 21°C / 15°C 320º 4kt >10km - Clouds and Visibility OK 1021 No Significant change UWKD 220000Z 32002MPS CAVOK 21/15 Q1021 R29/CLRD70 NOSIG RMK QFE754/1006
VFR 21°C / 15°C 330º 4kt >10km - Clouds and Visibility OK 1021 No Significant change UWKD 212330Z 33002MPS CAVOK 21/15 Q1021 R29/CLRD70 NOSIG RMK QFE754/1006
VFR 21°C / 15°C 340º 4kt >10km - Clouds and Visibility OK 1021 No Significant change UWKD 212300Z 34002MPS CAVOK 21/15 Q1021 R29/70D NOSIG RMK QFE754/1006
VFR 22°C / 15°C 350º variable 310º to 020º 4kt >10km - Clouds and Visibility OK 1021 No Significant change UWKD 212230Z 35002MPS 310V020 CAVOK 22/15 Q1021 R11/CLRD70 NOSIG RMK QFE755/1007
VFR 22°C / 15°C 330º 4kt >10km - Clouds and Visibility OK 1020 No Significant change UWKD 212200Z 33002MPS CAVOK 22/15 Q1020 R11/CLRD70 NOSIG RMK QFE755/1007
VFR 22°C / 15°C 340º 2kt >10km - Clouds and Visibility OK 1020 No Significant change UWKD 212130Z 34001MPS CAVOK 22/15 Q1020 R11/CLRD70 NOSIG RMK QFE755/1007
VFR 22°C / 15°C 290º 2kt >10km - Clouds and Visibility OK 1020 No Significant change UWKD 212100Z 29001MPS CAVOK 22/15 Q1020 R11/CLRD70 NOSIG RMK QFE755/1007
VFR 23°C / 14°C 280º 4kt >10km - Clouds and Visibility OK 1020 No Significant change UWKD 212030Z 28002MPS CAVOK 23/14 Q1020 R11/CLRD70 NOSIG RMK QFE755/1007

VFR

32°C / 13°C

[Больше]
Ветер 320º variable 280º to 360º 8kt
Видимость >10km
Погода -
Облачность Clouds and Visibility OK
Давление 1021
Изменить No Significant change
Необработанный UWKD 220800Z 32004MPS 280V360 CAVOK 32/13 Q1021 R29/CLRD70 NOSIG RMK QFE755/1006

VFR

32°C / 12°C

[Больше]
Ветер 310º variable 250º to 010º 8kt
Видимость >10km
Погода -
Облачность Clouds and Visibility OK
Давление 1021
Изменить No Significant change
Необработанный UWKD 220730Z 31004MPS 250V010 CAVOK 32/12 Q1021 R29/CLRD70 NOSIG RMK QFE755/1007

VFR

32°C / 12°C

[Больше]
Ветер 330º variable 290º to 360º 8kt
Видимость >10km
Погода -
Облачность Clouds and Visibility OK
Давление 1021
Изменить No Significant change
Необработанный UWKD 220700Z 33004MPS 290V360 CAVOK 32/12 Q1021 R29/CLRD70 NOSIG RMK QFE755/1007

VFR

31°C / 13°C

[Больше]
Ветер 310º variable 250º to 010º 6kt
Видимость >10km
Погода -
Облачность Clouds and Visibility OK
Давление 1021
Изменить No Significant change
Необработанный UWKD 220630Z 31003MPS 250V010 CAVOK 31/13 Q1021 R29/CLRD70 NOSIG RMK QFE755/1007

VFR

30°C / 15°C

[Больше]
Ветер 280º variable 260º to 340º 6kt
Видимость >10km
Погода -
Облачность Clouds and Visibility OK
Давление 1022
Изменить No Significant change
Необработанный UWKD 220600Z 28003MPS 260V340 CAVOK 30/15 Q1022 R29/70D NOSIG RMK QFE755/1007

VFR

30°C / 15°C

[Больше]
Ветер 290º variable 260º to 330º 6kt
Видимость >10km
Погода -
Облачность Clouds and Visibility OK
Давление 1022
Изменить No Significant change
Необработанный UWKD 220530Z 29003MPS 260V330 CAVOK 30/15 Q1022 R29/CLRD70 NOSIG RMK QFE755/1007

VFR

29°C / 16°C

[Больше]
Ветер 300º variable 260º to 340º 6kt
Видимость >10km
Погода -
Облачность Clouds and Visibility OK
Давление 1022
Изменить No Significant change
Необработанный UWKD 220500Z 30003MPS 260V340 CAVOK 29/16 Q1022 R29/CLRD70 NOSIG RMK QFE755/1007

VFR

28°C / 16°C

[Больше]
Ветер 300º variable 270º to 330º 6kt
Видимость >10km
Погода -
Облачность Clouds and Visibility OK
Давление 1022
Изменить No Significant change
Необработанный UWKD 220430Z 30003MPS 270V330 CAVOK 28/16 Q1022 R29/CLRD70 NOSIG RMK QFE755/1007

VFR

27°C / 17°C

[Больше]
Ветер 310º 6kt
Видимость >10km
Погода -
Облачность Clouds and Visibility OK
Давление 1022
Изменить No Significant change
Необработанный UWKD 220400Z 31003MPS CAVOK 27/17 Q1022 R29/CLRD70 NOSIG RMK QFE755/1007

VFR

25°C / 16°C

[Больше]
Ветер 320º 6kt
Видимость >10km
Погода -
Облачность Clouds and Visibility OK
Давление 1021
Изменить No Significant change
Необработанный UWKD 220330Z 32003MPS CAVOK 25/16 Q1021 R29/CLRD70 NOSIG RMK QFE755/1007

VFR

24°C / 16°C

[Больше]
Ветер 310º 4kt
Видимость >10km
Погода -
Облачность Clouds and Visibility OK
Давление 1021
Изменить No Significant change
Необработанный UWKD 220300Z 31002MPS CAVOK 24/16 Q1021 R29/70D NOSIG RMK QFE755/1007

VFR

23°C / 17°C

[Больше]
Ветер 320º 4kt
Видимость >10km
Погода -
Облачность Clouds and Visibility OK
Давление 1021
Изменить No Significant change
Необработанный UWKD 220230Z 32002MPS CAVOK 23/17 Q1021 R29/70D NOSIG RMK QFE755/1006

VFR

23°C / 16°C

[Больше]
Ветер 330º 4kt
Видимость >10km
Погода -
Облачность Clouds and Visibility OK
Давление 1021
Изменить No Significant change
Необработанный UWKD 220200Z 33002MPS CAVOK 23/16 Q1021 R29/70D NOSIG RMK QFE755/1006

VFR

22°C / 16°C

[Больше]
Ветер 330º 4kt
Видимость >10km
Погода -
Облачность Clouds and Visibility OK
Давление 1021
Изменить No Significant change
Необработанный UWKD 220130Z 33002MPS CAVOK 22/16 Q1021 R29/CLRD70 NOSIG RMK QFE755/1006

VFR

21°C / 15°C

[Больше]
Ветер 320º 4kt
Видимость >10km
Погода -
Облачность Clouds and Visibility OK
Давление 1021
Изменить No Significant change
Необработанный UWKD 220100Z 32002MPS CAVOK 21/15 Q1021 R29/70D NOSIG RMK QFE754/1006

VFR

21°C / 15°C

[Больше]
Ветер 320º 4kt
Видимость >10km
Погода -
Облачность Clouds and Visibility OK
Давление 1021
Изменить No Significant change
Необработанный UWKD 220030Z 32002MPS CAVOK 21/15 Q1021 R29/CLRD70 NOSIG RMK QFE754/1006

VFR

21°C / 15°C

[Больше]
Ветер 320º 4kt
Видимость >10km
Погода -
Облачность Clouds and Visibility OK
Давление 1021
Изменить No Significant change
Необработанный UWKD 220000Z 32002MPS CAVOK 21/15 Q1021 R29/CLRD70 NOSIG RMK QFE754/1006

VFR

21°C / 15°C

[Больше]
Ветер 330º 4kt
Видимость >10km
Погода -
Облачность Clouds and Visibility OK
Давление 1021
Изменить No Significant change
Необработанный UWKD 212330Z 33002MPS CAVOK 21/15 Q1021 R29/CLRD70 NOSIG RMK QFE754/1006

VFR

21°C / 15°C

[Больше]
Ветер 340º 4kt
Видимость >10km
Погода -
Облачность Clouds and Visibility OK
Давление 1021
Изменить No Significant change
Необработанный UWKD 212300Z 34002MPS CAVOK 21/15 Q1021 R29/70D NOSIG RMK QFE754/1006

VFR

22°C / 15°C

[Больше]
Ветер 350º variable 310º to 020º 4kt
Видимость >10km
Погода -
Облачность Clouds and Visibility OK
Давление 1021
Изменить No Significant change
Необработанный UWKD 212230Z 35002MPS 310V020 CAVOK 22/15 Q1021 R11/CLRD70 NOSIG RMK QFE755/1007

VFR

22°C / 15°C

[Больше]
Ветер 330º 4kt
Видимость >10km
Погода -
Облачность Clouds and Visibility OK
Давление 1020
Изменить No Significant change
Необработанный UWKD 212200Z 33002MPS CAVOK 22/15 Q1020 R11/CLRD70 NOSIG RMK QFE755/1007

VFR

22°C / 15°C

[Больше]
Ветер 340º 2kt
Видимость >10km
Погода -
Облачность Clouds and Visibility OK
Давление 1020
Изменить No Significant change
Необработанный UWKD 212130Z 34001MPS CAVOK 22/15 Q1020 R11/CLRD70 NOSIG RMK QFE755/1007

VFR

22°C / 15°C

[Больше]
Ветер 290º 2kt
Видимость >10km
Погода -
Облачность Clouds and Visibility OK
Давление 1020
Изменить No Significant change
Необработанный UWKD 212100Z 29001MPS CAVOK 22/15 Q1020 R11/CLRD70 NOSIG RMK QFE755/1007

VFR

23°C / 14°C

[Больше]
Ветер 280º 4kt
Видимость >10km
Погода -
Облачность Clouds and Visibility OK
Давление 1020
Изменить No Significant change
Необработанный UWKD 212030Z 28002MPS CAVOK 23/14 Q1020 R11/CLRD70 NOSIG RMK QFE755/1007

TAF для 55.61°С 49.28°В (UWKD)

From till


Maximum Temperature 34ºC on . Minimum Temperature 20ºC on .
From till Wind 290º 6kt. Visibility 10km or more. Nil Significant Cloud.

Необработанный: TAF UWKD 220500Z 2206/2306 29003MPS CAVOK TX34/2212Z TN20/2301Z

Текущие спутниковые изображения и снимки дождя для 55.61°С 49.28°В

Указатель местности находится на 55.61°С 49.28°В. [Больше]

Спутниковое изображение в реальном времени сочетает в себе видимый свет в дневное время с инфракрасным излучением в ночное время. Ночью изображение получается не темным, так как инфракрасное излучение может обнаружить разницу температур. К сожалению, низкие облака и туман трудно отличить от температуры у поверхности земли и поэтому могут быть почти незаметны ночью. Спутниковые снимки Meteosat для Европы обновляются каждые 5 минут в режиме реального времени.Снимки GOES-16/GOES-17 (Северная и Южная Америка) и Химавари (Азия) обновляются каждые 10 минут.

Копирайт 2021 EUMETSAT / meteoblue. / Копирайт 2021 meteoblue

Радарный и сверхкраткосрочный прогноз осадков для 55.61°С 49.28°В

Индикатор местности находится на 55.61°С 49.28°В. Анимация показывает радар осадков за последний час, а также прогноз погоды для1h. Умеренная морось или легкий снег могут быть незаметны для радара. Интенсивность осадковмаркированна цветной кодировкой, начиная со светло-синего и заканчивая темно-пурпурным.